STARLINK-32141 (60290 NORAD) Tracking and Keplerian Element Data

This shows tracking and keplerian element data for the satellite.

Feedback or suggestion? Click here.




ElementValue
Catalog60290
NameSTARLINK-32141
Epoch Orbit1297
Epoch Day286.39822261
Epoch Year2024
RAAN276.5872
Inclination53.1576
Eccentricity0.0001105
Argument of Perigee103.8803
Mean Anonmoly256.2321
Mean Motion15.30177129
Decay Rate0.00020097
L11 60290U 24132N 24286.39822261 .00020097 00000+0 68931-3 0 9991
L22 60290 53.1576 276.5872 0001105 103.8803 256.2321 15.30177129 12979



Live tracking and technical data element details for STARLINK-32141 (NORAD 60290). STARLINK-32141 can be tracked NOW for your location showing map with azimuth and elevation plus other details from your city location.







IsCatalogInMostPopularTable: catalog: 60290, numindb: 11
Update: records affected: 1



GetName: 60290 STARLINK-32141

Hit Count: updated at: Thu, 23 Jan 2025 15:15:05 GMT